Content
SEND FEEDBACK

Daily
Averages
Monthly
Summary
United States of America

CHESTERFIELD, MISSOURI


Home > North America > United States > Missouri
Elevation: 170 meters     Latitude: 38 41N     Longitude: 090 31W

WEATHER
 
SELECT A DAY
Number of Records: 203,542;   Date Range: 1/1/95 - 8/30/14
 
SHARE

PRINT THIS DATA

[ ← Previous Day ]
WEATHER ALMANAC - 8 MARCH, 2013
[ Next Day → ]
[ °F ]   °C
Weather ElementAverageHighLow
Temperature6.1 °C12.2 °C (3:51 pm)-1.7 °C (4:51 am)
Dewpoint-2 °C0 °C (11:51 pm)-4 °C (3:51 am)
Humidity58.8 %85 % (4:51 am)37 % (3:51 pm)
Barometer1027.4 hPa1030.5 hPa (5:51 am)1023.4 hPa (11:51 pm)
Wind Speed17.7 km/h24.1 km/h (11:51 am)
Weather ElementAverage
Visibility14.5 km
Wind DirectionESE (116.8 °)

Weather ElementTotal
Precipitation---
Heating Degree Days13.1 (Base 18.3)
Averaged from 22 records on 8 March, 2013
WEATHER CONDITIONS BREAKOUT
WIND DIRECTION BREAKOUT
WEATHER BY HOUR - 8 MARCH, 2013
[ °F ]   °C
Local TimeTemperatureDewpointHumidityBarometerVisibilityWind DirectionWind SpeedGust SpeedPrecipitationEventsConditions
1:51 AM-1.1 °C-3.9 °C82 %1030.1 hPa11.3 kmEast (100°)9.3 km/hClear
2:51 AM-1.1 °C-3.9 °C82 %1029.8 hPa12.9 kmEast (100°)9.3 km/hClear
3:51 AM-1 °C-4 °C80 %1029.1 hPa12.9 kmESE (110°)7.4 km/hClear
4:51 AM-1.7 °C-3.9 °C85 %1029.8 hPa11.3 kmESE (120°)11.1 km/hClear
5:51 AM-1.7 °C-3.9 °C85 %1030.5 hPa9.7 kmESE (110°)9.3 km/hClear
6:51 AM-0.6 °C-3.3 °C82 %1030.1 hPa9.7 kmESE (110°)13 km/hHaze
7:51 AM1.7 °C-2.8 °C72 %1030.5 hPa11.3 kmSE (130°)13 km/hScattered Clouds
9:51 AM6 °C-2 °C57 %1030.1 hPa16.1 kmESE (120°)20.4 km/hScattered Clouds
10:51 AM7 °C-2 °C53 %1029.5 hPa16.1 kmSE (130°)22.2 km/hMostly Cloudy
11:51 AM8.9 °C-1.1 °C50 %1029.1 hPa16.1 kmESE (120°)24.1 km/hMostly Cloudy
12:51 PM10 °C-1.7 °C44 %1027.8 hPa16.1 kmESE (120°)24.1 km/hMostly Cloudy
1:51 PM11.1 °C-1.7 °C41 %1026.8 hPa16.1 kmESE (110°)24.1 km/hMostly Cloudy
2:51 PM11.7 °C-1.7 °C40 %1026.8 hPa16.1 kmESE (120°)18.5 km/hMostly Cloudy
3:51 PM12.2 °C-2.2 °C37 %1026.4 hPa16.1 kmSE (140°)16.7 km/hMostly Cloudy
4:51 PM10.6 °C-1.7 °C43 %1026.1 hPa16.1 kmESE (120°)16.7 km/hMostly Cloudy
5:51 PM10.6 °C-1.1 °C44 %1025.7 hPa16.1 kmESE (120°)22.2 km/hMostly Cloudy
6:51 PM10 °C-0.6 °C48 %1025.7 hPa16.1 kmESE (110°)18.5 km/hOvercast
7:51 PM8.9 °C-0.6 °C52 %1025.1 hPa16.1 kmESE (110°)18.5 km/hOvercast
8:51 PM8.9 °C-0.6 °C52 %1025.1 hPa16.1 kmESE (110°)24.1 km/hOvercast
9:51 PM8.3 °C-0.6 °C54 %1025.4 hPa16.1 kmESE (120°)20.4 km/hMostly Cloudy
10:51 PM8.3 °C-1.1 °C52 %1024 hPa16.1 kmESE (120°)22.2 km/hOvercast
11:51 PM7.8 °C0 °C58 %1023.4 hPa16.1 kmESE (120°)22.2 km/h0 mmRainLight Rain
Hourly data recorded from KSTL, located 0 kilometers away from Chesterfield, Missouri







STORIES FROM OUR PARTNERS